TimeEDT,TemperatureF,Dew PointF,Humidity,Sea Level PressureIn,VisibilityMPH,Wind Direction,Wind SpeedMPH,Gust SpeedMPH,PrecipitationIn,Events,Conditions,WindDirDegrees,DateUTC
12:54 AM,41.0,37.9,89,30.27,10.0,Calm,Calm,-,N/A,,Clear,0,2011-11-03 04:54:00
1:54 AM,39.9,37.9,93,30.26,10.0,Calm,Calm,-,N/A,,Clear,0,2011-11-03 05:54:00
2:54 AM,37.9,37.0,97,30.24,10.0,Calm,Calm,-,N/A,,Clear,0,2011-11-03 06:54:00
3:54 AM,37.0,35.1,93,30.22,10.0,Calm,Calm,-,N/A,,Clear,0,2011-11-03 07:54:00
4:54 AM,37.4,35.6,93,30.20,10.0,Calm,Calm,-,N/A,,Clear,0,2011-11-03 08:54:00
5:54 AM,37.0,36.0,96,30.20,10.0,Calm,Calm,-,N/A,,Clear,0,2011-11-03 09:54:00
6:54 AM,37.0,35.1,93,30.19,10.0,Calm,Calm,-,N/A,,Clear,0,2011-11-03 10:54:00
7:54 AM,36.0,34.0,93,30.19,5.0,Calm,Calm,-,N/A,,Clear,0,2011-11-03 11:54:00
8:54 AM,37.9,37.0,97,30.19,8.0,Calm,Calm,-,N/A,,Clear,0,2011-11-03 12:54:00
9:54 AM,46.0,39.9,79,30.18,10.0,SSW,3.5,-,N/A,,Clear,200,2011-11-03 13:54:00
10:54 AM,51.1,39.9,66,30.17,10.0,South,8.1,-,N/A,,Clear,180,2011-11-03 14:54:00
11:54 AM,57.0,41.0,55,30.14,10.0,South,9.2,-,N/A,,Clear,180,2011-11-03 15:54:00
12:54 PM,61.0,39.0,44,30.09,10.0,SSW,12.7,19.6,N/A,,Clear,210,2011-11-03 16:54:00
1:54 PM,62.1,37.9,41,30.05,10.0,SSW,10.4,19.6,N/A,,Clear,200,2011-11-03 17:54:00
2:54 PM,63.0,37.0,38,30.02,10.0,SSW,12.7,-,N/A,,Clear,200,2011-11-03 18:54:00
3:54 PM,63.0,37.9,40,29.97,10.0,SSE,9.2,-,N/A,,Clear,150,2011-11-03 19:54:00
4:54 PM,63.0,36.0,37,29.96,10.0,SSE,11.5,-,N/A,,Clear,160,2011-11-03 20:54:00
5:54 PM,59.0,37.0,44,29.96,10.0,South,8.1,-,N/A,,Clear,180,2011-11-03 21:54:00
6:54 PM,51.1,37.9,61,29.98,10.0,Calm,Calm,-,N/A,,Clear,0,2011-11-03 22:54:00
7:54 PM,46.9,37.9,71,29.98,10.0,Calm,Calm,-,N/A,,Clear,0,2011-11-03 23:54:00
8:54 PM,46.9,39.0,74,29.96,10.0,Calm,Calm,-,N/A,,Clear,0,2011-11-04 00:54:00
9:54 PM,48.2,39.2,71,29.94,10.0,Calm,Calm,-,N/A,,Mostly Cloudy,0,2011-11-04 01:54:00
10:54 PM,48.9,44.1,83,29.96,10.0,West,4.6,-,0.01,Rain,Light Rain,270,2011-11-04 02:54:00
11:54 PM,46.9,46.0,97,29.95,6.0,Calm,Calm,-,0.09,Rain,Light Rain,0,2011-11-04 03:54:00